Weather Roundup
Issued by NWS Chicago, IL

Home | Current Version | Previous Version | Graphics & Text | Print | Product List | Glossary On
Versions: 1 2 3 4 5 6 7 8 9 10 11 12 13 14 15 16 17 18 19 20 21 22 23 24 25 26 27 28 29 30 31 32 33 34 35 36 37 38 39 40 41 42 43 44 45 46 47 48 49 50
000
NZUS59 KLOT 270110
HRRLOT

CHICAGO AREA WEATHER ROUNDUP
NATIONAL WEATHER SERVICE CHICAGO/ROMEOVILLE IL
700 PM CST WED NOV 26 2014

NOTE: "FAIR" INDICATES FEW OR NO CLOUDS BELOW 12,000 FEET WITH NO
SIGNIFICANT WEATHER AND/OR OBSTRUCTIONS TO VISIBILITY.

* THESE STATIONS ARE NOT UNDER NWS QUALITY CONTROL. THEY ALSO MAY NOT
  REPORT WEATHER SUCH AS PRECIPITATION OR FOG.

ILZ005-006-012>014-019>023-270200-
NORTHEAST ILLINOIS

CITY           SKY/WX    TMP DP  RH WIND       PRES   REMARKS
OHARE          CLOUDY    29  22  75 CALM      30.12S
MIDWAY         CLOUDY    31  22  69 NE6       30.13R WCI  25
AURORA         CLOUDY    25  20  81 W3        30.15R
LANSING*       CLOUDY    28  21  74 SE5       30.13S WCI  23
JOLIET*        CLOUDY    26  19  76 CALM      30.15R
WAUKEGAN       CLOUDY    27  23  85 NW7       30.13R WCI  19
DUPAGE AIRPORT CLOUDY    28  21  75 CALM      30.13R
WHEELING       CLOUDY    29  23  78 N8        30.15R WCI  21
KANKAKEE*      CLOUDY   N/A N/A N/A NE8       30.13S
MORRIS*        CLOUDY    26  22  82 CALM      30.14R
LEWIS AIRPORT* CLOUDY    26  20  79 CALM      30.14R
NORTHERLY IS     N/A     30  22  72 NE12        N/A  WCI  21
$$

WIZ051-052-058>065-066-070>072-270200-
SOUTHEAST WISCONSIN

CITY           SKY/WX    TMP DP  RH WIND       PRES   REMARKS
MILWAUKEE      CLOUDY    29  20  69 NW12      30.15R WCI  19
KENOSHA*       CLOUDY    28  23  81 NW9       30.13S WCI  19
RACINE*        CLOUDY    29  22  75 NW7       30.15S WCI  22
BURLINGTON     CLOUDY    22  19  90 NW14      30.15R FOG     WCI   9
WAUKESHA       MOCLDY    21  19  93 NW7       30.16S FOG     WCI  13
WEST BEND      MOCLDY    21  19  93 CALM      30.17R
$$

INZ001>003-010>013-019-020-270200-
NORTHWEST INDIANA

CITY           SKY/WX    TMP DP  RH WIND       PRES   REMARKS
GARY*          CLOUDY    30  21  69 SE6       30.13  WCI  24
MICHIGAN CITY* NOT AVBL
RENSSELAER*    NOT AVBL
VALPARAISO     CLOUDY    27  19  72 VRB7      30.13R WCI  19
$$

LMZ740>746-270200-
SOUTHERN LAKE MICHIGAN

STATION/POSITION TIME  SKY/WX   TEMP WIND        PRES    VSBY
                                AIR  DIR/SP/G
                 (UTC)          (F)  (DEG/KT/KT) (MB)    (MI)
HARRISON CRIB    0100            30   50/ 11/ 14   N/A
BURNHAM HARBOR   0100            30   50/  9/ 12   N/A
CALUMET HARBOR   0100            30   20/  5/  9 1018.8S
BURNS HARBOR     NOT AVBL
MICHIGAN CITY    0100            27   80/  4/  4   N/A
$$

ABBREVIATIONS USED IN REMARKS
   TC - TEMPERATURE IN CELSIUS
  WCI - WIND CHILL INDEX
   HX - HEAT INDEX
  VSB - VISIBILITY
$$



USA.gov is the U.S. government's official web portal to all federal, state and local government web resources and services.